Weather History for Los Angeles, CA

Change the Weather History Date:

Thursday, September 27, 2012

  Actual Average Record
Temperature  
Mean Temperature 68 °F 68 °F  
Max Temperature 73 °F 74 °F 105 °F (1963)
Min Temperature 63 °F 62 °F 53 °F (1949)
Degree Days  
Heating Degree Days 0 0  
Month to date heating degree days 0 0  
Since 1 July heating degree days 5 4  
Cooling Degree Days 3 3  
Month to date cooling degree days 204 113  
Year to date cooling degree days 550 459  
Growing Degree Days 18 (Base 50)    
Moisture  
Dew Point 62 °F    
Average Humidity 79    
Maximum Humidity 93    
Minimum Humidity 64    
Precipitation  
Precipitation 0.00 in 0.01 in 0.68 in (1919)
Month to date precipitation T 0.17  
Year to date precipitation 4.61 9.06  
Since 1 July precipitation T 0.25  
Sea Level Pressure  
Sea Level Pressure 29.90 in    
Wind  
Wind Speed 7 mph (West)    
Max Wind Speed 14 mph    
Max Gust Speed 20 mph    
Visibility 8 miles    
Events Fog    
T = Trace of Precipitation, MM = Missing Value Source: NWS Daily Summary

Daily Weather History Graph

Daily Weather History Graph

Search for Another Location

Airport:

Trip Planner

Search our weather history database for the weather conditions in past years. The results will help you decide how hot, cold, wet, or windy it might be!

Date:

Astronomy

Sep. 27, 2012 Rise Set
Actual Time 6:45 AM PDT 6:42 PM PDT
Civil Twilight 6:20 AM PDT 7:07 PM PDT
Nautical Twilight 5:51 AM PDT 7:36 PM PDT
Astronomical Twilight 5:22 AM PDT 8:05 PM PDT
Moon 5:13 PM PDT (9/27) 4:24 AM PDT (9/27)
Length of Visible Light 12h 46m
Length of Day
11h 56m
Waxing Gibbous, 94% of the Moon is Illuminated
Sep 27
Waxing Gibbous
Sep 29
Full
Oct 8
Last Quarter
Oct 15
New
Oct 21
First Quarter

Hourly Weather History & Observations

Time (PDT) Temp. Dew Point Humidity Pressure Visibility Wind Dir Wind Speed Gust Speed Precip Events Conditions
12:53 AM 64.9 °F 62.1 °F 90% 29.88 in 10.0 mi West 8.1 mph - N/A   Partly Cloudy
1:50 AM 64.4 °F 62.6 °F 94% 29.88 in 9.0 mi WNW 9.2 mph - N/A   Partly Cloudy
1:53 AM 64.9 °F 62.1 °F 90% 29.88 in 9.0 mi WNW 6.9 mph - N/A   Partly Cloudy
2:53 AM 64.0 °F 62.1 °F 93% 29.87 in 9.0 mi West 5.8 mph - N/A   Partly Cloudy
3:53 AM 64.0 °F 61.0 °F 90% 29.87 in 9.0 mi WNW 5.8 mph - N/A   Partly Cloudy
4:53 AM 64.0 °F 61.0 °F 90% 29.87 in 9.0 mi WSW 3.5 mph - N/A   Partly Cloudy
5:53 AM 64.0 °F 61.0 °F 90% 29.88 in 6.0 mi NW 3.5 mph - N/A   Scattered Clouds
6:09 AM 64.4 °F 60.8 °F 88% 29.90 in 6.0 mi Calm Calm - N/A   Mostly Cloudy
6:53 AM 64.0 °F 62.1 °F 93% 29.90 in 5.0 mi NNW 3.5 mph - N/A Fog Overcast
7:53 AM 64.9 °F 62.1 °F 90% 29.92 in 5.0 mi North 3.5 mph - N/A   Mostly Cloudy
8:12 AM 66.2 °F 62.6 °F 88% 29.93 in 5.0 mi Calm Calm - N/A   Mostly Cloudy
8:53 AM 66.0 °F 61.0 °F 84% 29.93 in 5.0 mi WNW 3.5 mph - N/A   Mostly Cloudy
9:53 AM 70.0 °F 62.1 °F 76% 29.93 in 5.0 mi Calm Calm - N/A   Haze
10:53 AM 72.0 °F 62.1 °F 71% 29.92 in 7.0 mi West 4.6 mph - N/A   Scattered Clouds
11:53 AM 71.1 °F 62.1 °F 73% 29.91 in 6.0 mi West 10.4 mph - N/A   Haze
12:53 PM 72.0 °F 62.1 °F 71% 29.91 in 7.0 mi West 11.5 mph - N/A   Scattered Clouds
1:53 PM 73.0 °F 61.0 °F 66% 29.88 in 10.0 mi West 10.4 mph - N/A   Scattered Clouds
2:53 PM 73.0 °F 61.0 °F 66% 29.87 in 10.0 mi West 10.4 mph - N/A   Scattered Clouds
3:53 PM 72.0 °F 62.1 °F 71% 29.87 in 10.0 mi West 12.7 mph - N/A   Scattered Clouds
4:53 PM 71.1 °F 62.1 °F 73% 29.86 in 10.0 mi West 10.4 mph - N/A   Mostly Cloudy
5:53 PM 69.1 °F 62.1 °F 78% 29.86 in 10.0 mi West 6.9 mph - N/A   Mostly Cloudy
6:53 PM 68.0 °F 62.1 °F 81% 29.87 in 9.0 mi West 8.1 mph - N/A   Mostly Cloudy
7:53 PM 66.9 °F 62.1 °F 84% 29.89 in 10.0 mi West 10.4 mph - N/A   Mostly Cloudy
8:53 PM 66.9 °F 62.1 °F 84% 29.90 in 10.0 mi WNW 9.2 mph - N/A   Mostly Cloudy
9:53 PM 66.0 °F 62.1 °F 87% 29.92 in 10.0 mi West 6.9 mph - N/A   Scattered Clouds
10:53 PM 66.0 °F 62.1 °F 87% 29.93 in 10.0 mi West 8.1 mph - N/A   Mostly Cloudy
11:50 PM 66.2 °F 62.6 °F 88% 29.93 in 10.0 mi West 8.1 mph - N/A   Mostly Cloudy
11:53 PM 66.0 °F 62.1 °F 87% 29.92 in 10.0 mi West 9.2 mph - N/A   Mostly Cloudy